Tracking 30696 objects as of 15-Jun-2025
HD Live streaming from Space Station
objects crossing your sky now

STARLINK-32327

Track STARLINK-32327 now!
10-day predictions
STARLINK-32327 is classified as:


NORAD ID: 61641
Int'l Code: 2024-191W
Perigee: 489.0 km
Apogee: 491.0 km
Inclination: 43.0 °
Period: 94.3 minutes
Semi major axis: 6860 km
RCS: Unknown
Launch date: October 23, 2024
Source: United States (US)
Launch site: AIR FORCE EASTERN TEST RANGE (AFETR)
Your satellite tracking list
Your tracking list is empty




NASA's NSSDC Master Catalog

Two Line Element Set (TLE):
1 61641U 24191W   25165.57381657  .00008984  00000-0  33488-3 0  9994
2 61641  42.9914 228.4866 0001426 194.9596 165.1213 15.27650606 37222
Source of the keplerian elements: AFSPC